Location: Oakland Fire Department Station 16
(37.8030°N, 122.2303°W)
Time: 23:06:34
(UTC+00:00)

Daily predictions for brighter satellites

Satellite Brightness Start Highest point End
(mag) Time Altitude Azimuth Time Altitude Azimuth Time Altitude Azimuth
SL-8 R/B 3.9 12:01:00 10° WSW 12:05:47 71° NNW 12:10:35 10° NE
Gbstr 26 Del rocket 4.2 12:02:35 10° SSW 12:06:07 32° SE 12:10:11 10° ENE
IDEFIX/ARIANE 42P 2.8 12:01:17 10° NNE 12:06:32 74° ESE 12:11:43 10° S
Cosmos 1745 Rocket 4.1 12:03:10 10° N 12:09:34 88° W 12:15:55 10° S
Cosmos 1844 4.2 12:04:03 10° NNW 12:09:36 67° ENE 12:15:09 10° SSE
Lacrosse 5 4.0 12:07:24 10° WNW 12:10:48 18° NNW 12:14:12 10° NNE
Cosmos 292 Rocket 3.9 12:07:02 10° NNW 12:11:47 56° WSW 12:16:31 10° S
PSLV R/B 4.1 12:08:16 10° S 12:12:12 49° W 12:16:09 10° NNW
CZ-2C R/B 4.1 12:07:30 10° NNE 12:12:18 37° E 12:17:02 10° SSE
Cosmos 2219 Rocket 2.4 12:07:25 10° SSW 12:13:05 81° ESE 12:18:48 10° NNE
CZ-4B R/B 4.0 12:14:32 10° NNE 12:18:44 48° E 12:22:41 10° S
